Phoenix Deer Valley, AZ

12:08 PM MST on March 23, 2017 (GMT -0700)
Phoenix-Deer Valley Municipal

Weather History for KDVT - October, 2012

Change the Weather History Date:

Thursday, October 25, 2012

  Actual Average Record
Temperature  
Mean Temperature 68 °F -  
Max Temperature 81 °F 77 °F 93 °F (2003)
Min Temperature 55 °F 57 °F 53 °F (1997)
Cooling Degree Days 3    
Growing Degree Days 18 (Base 50)    
Moisture  
Dew Point 21 °F    
Average Humidity 19    
Maximum Humidity 35    
Minimum Humidity 9    
Precipitation  
Precipitation 0.00 in - - ()
Sea Level Pressure  
Sea Level Pressure 29.92 in    
Wind  
Wind Speed 4 mph (WSW)    
Max Wind Speed 12 mph    
Max Gust Speed -    
Visibility 10 miles    
Events      
Averages and records for this station are not official NWS values.
T = Trace of Precipitation, MM = Missing Value Source: NWS Daily Summary

Daily Weather History Graph

Daily Weather History Graph

Search for Another Location

Airport or City:

Trip Planner

Search our weather history database for the weather conditions in past years. The results will help you decide how hot, cold, wet, or windy it might be!

Date:

Astronomy

Oct. 25, 2012 Rise Set
Actual Time 6:41 AM MST 5:42 PM MST
Civil Twilight 6:16 AM MST 6:07 PM MST
Nautical Twilight 5:47 AM MST 6:37 PM MST
Astronomical Twilight 5:18 AM MST 7:05 PM MST
Moon 3:21 PM MST (10/25) 2:52 AM MST (10/25)
Length of Visible Light 11h 51m
Length of Day
11h 00m
Waxing Gibbous, 85% of the Moon is Illuminated
Oct 25
Waxing Gibbous
Oct 29
Full
Nov 6
Last Quarter
Nov 13
New
Nov 20
First Quarter

Hourly Weather History & Observations

Time (MST) Temp. Dew Point Humidity Pressure Visibility Wind Dir Wind Speed Gust Speed Precip Events Conditions
12:53 AM 62.1 °F 30.0 °F 30% 29.90 in 10.0 mi ENE 4.6 mph - N/A   Clear
1:53 AM 60.1 °F 30.0 °F 32% 29.91 in 10.0 mi Calm Calm - N/A   Clear
2:53 AM 57.0 °F 28.9 °F 34% 29.91 in 10.0 mi Calm Calm - N/A   Clear
3:53 AM 55.0 °F 28.0 °F 35% 29.92 in 10.0 mi NW 3.5 mph - N/A   Clear
4:53 AM 55.0 °F 26.1 °F 33% 29.94 in 10.0 mi ESE 5.8 mph - N/A   Clear
5:53 AM 57.0 °F 21.0 °F 25% 29.96 in 10.0 mi ENE 3.5 mph - N/A   Clear
6:53 AM 55.0 °F 23.0 °F 29% 29.96 in 10.0 mi Calm Calm - N/A   Clear
7:53 AM 57.9 °F 25.0 °F 28% 29.99 in 10.0 mi Calm Calm - N/A   Clear
8:53 AM 64.9 °F 24.1 °F 21% 29.99 in 10.0 mi SE 3.5 mph - N/A   Clear
9:53 AM 69.1 °F 19.9 °F 15% 29.99 in 10.0 mi SSE 4.6 mph - N/A   Clear
10:53 AM 73.0 °F 18.0 °F 12% 29.98 in 10.0 mi Variable 3.5 mph - N/A   Clear
11:53 AM 75.9 °F 16.0 °F 10% 29.95 in 10.0 mi SSW 4.6 mph - N/A   Clear
12:53 PM 77.0 °F 17.1 °F 10% 29.91 in 10.0 mi Variable 4.6 mph - N/A   Clear
1:53 PM 79.0 °F 14.0 °F 9% 29.88 in 10.0 mi Calm Calm - N/A   Clear
2:53 PM 81.0 °F 17.1 °F 9% 29.88 in 10.0 mi WSW 6.9 mph - N/A   Clear
3:53 PM 81.0 °F 19.0 °F 10% 29.86 in 10.0 mi WSW 9.2 mph - N/A   Clear
4:53 PM 80.1 °F 18.0 °F 10% 29.85 in 10.0 mi West 11.5 mph - N/A   Clear
5:53 PM 78.1 °F 17.1 °F 10% 29.86 in 10.0 mi WSW 8.1 mph - N/A   Clear
6:53 PM 73.9 °F 21.9 °F 14% 29.87 in 10.0 mi West 8.1 mph - N/A   Clear
7:53 PM 71.1 °F 19.9 °F 14% 29.88 in 10.0 mi Calm Calm - N/A   Clear
8:53 PM 66.9 °F 19.9 °F 17% 29.90 in 10.0 mi Calm Calm - N/A   Clear
10:53 PM 66.9 °F 18.0 °F 15% 29.91 in 10.0 mi NNE 9.2 mph - N/A   Clear
11:53 PM 68.0 °F 18.0 °F 15% 29.91 in 10.0 mi NNE 8.1 mph - N/A   Clear